Location: Mount Cross
(36.6390°N, 79.4878°W)
Time: 01:06:03
(UTC+00:00)

SR - Pass Details

Date: 07 April 2023
Orbit: 580 x 867 km, 66.7° (Epoch: 08 June)

Event Time Altitude Azimuth Distance (km) Brightness Sun altitude
Rises 05:30:36 0° 255° (WSW) 2,942 - -46.6°
Reaches altitude 10° 05:34:11 10° 283° (WNW) 1,982 - -46.5°
Maximum altitude 05:36:12 13° 311° (NW) 1,777 - -46.5°
Drops below altitude 10° 05:38:11 10° 338° (NNW) 1,938 - -46.4°
Exits shadow 05:41:17 - 6° (N) 2,716 ? -46.3°
Sets 05:41:36 0° 8° (N) 2,816 ? -46.3°
